Stündliche Wetter Abowian

Heute, 22 Juni, Dienstag

Zeit Temperatur Niederschläge Wind Luftdruck Luftfeuchtigkeit
00:00 +22°C° 0 mm 3 m/S 670 mmHg 60%
01:00 +22°C° 0 mm 3 m/S 670 mmHg 61%
02:00 +21°C° 0 mm 2 m/S 670 mmHg 62%
03:00 +21°C° 0 mm 2 m/S 670 mmHg 64%
04:00 +23°C° 0 mm 2 m/S 670 mmHg 61%
05:00 +24°C° 0 mm 2 m/S 670 mmHg 59%
06:00 +25°C° 0 mm 1 m/S 671 mmHg 56%
07:00 +27°C° 0 mm 1 m/S 671 mmHg 50%
08:00 +29°C° 0 mm 2 m/S 671 mmHg 44%
09:00 +31°C° 0 mm 2 m/S 672 mmHg 38%
10:00 +32°C° 0 mm 2 m/S 672 mmHg 34%
11:00 +35°C° 0 mm 3 m/S 671 mmHg 30%
12:00 +37°C° 0 mm 3 m/S 671 mmHg 26%
13:00 +37°C° 0 mm 3 m/S 671 mmHg 23%
14:00 +38°C° 0 mm 4 m/S 671 mmHg 20%
15:00 +40°C° 0 mm 4 m/S 670 mmHg 17%
16:00 +38°C° 0.1 mm 4 m/S 670 mmHg 20%
17:00 +37°C° 0.1 mm 4 m/S 670 mmHg 24%
18:00 +36°C° 0.1 mm 4 m/S 670 mmHg 27%
19:00 +33°C° 0 mm 4 m/S 670 mmHg 35%
20:00 +29°C° 0 mm 4 m/S 670 mmHg 42%
21:00 +26°C° 0 mm 4 m/S 669 mmHg 49%
22:00 +25°C° 0 mm 4 m/S 670 mmHg 50%
23:00 +24°C° 0 mm 3 m/S 670 mmHg 50%

Morgen, 23 Juni, Mittwoch

Zeit Temperatur Niederschläge Wind Luftdruck Luftfeuchtigkeit
00:00 +22°C° 0 mm 3 m/S 670 mmHg 50%
01:00 +21°C° 0 mm 3 m/S 670 mmHg 50%
02:00 +21°C° 0 mm 2 m/S 670 mmHg 50%
03:00 +20°C° 0 mm 2 m/S 670 mmHg 49%
04:00 +21°C° 0 mm 2 m/S 670 mmHg 47%
05:00 +23°C° 0 mm 1 m/S 671 mmHg 45%
06:00 +24°C° 0 mm 1 m/S 671 mmHg 43%
07:00 +26°C° 0 mm 1 m/S 671 mmHg 37%
08:00 +29°C° 0 mm 1 m/S 671 mmHg 32%
09:00 +31°C° 0 mm 2 m/S 672 mmHg 27%
10:00 +34°C° 0 mm 2 m/S 672 mmHg 24%
11:00 +35°C° 0 mm 3 m/S 672 mmHg 20%
12:00 +37°C° 0 mm 4 m/S 672 mmHg 17%
13:00 +38°C° 0 mm 4 m/S 671 mmHg 15%
14:00 +40°C° 0 mm 5 m/S 671 mmHg 13%
15:00 +41°C° 0 mm 5 m/S 671 mmHg 11%
16:00 +40°C° 0 mm 5 m/S 670 mmHg 14%
17:00 +39°C° 0 mm 5 m/S 670 mmHg 18%
18:00 +37°C° 0 mm 5 m/S 670 mmHg 21%
19:00 +34°C° 0 mm 4 m/S 669 mmHg 29%
20:00 +30°C° 0 mm 4 m/S 669 mmHg 37%
21:00 +26°C° 0 mm 4 m/S 669 mmHg 45%
22:00 +25°C° 0 mm 4 m/S 669 mmHg 44%
23:00 +24°C° 0 mm 3 m/S 669 mmHg 43%

übermorgen, 24 Juni, Donnerstag

Zeit Temperatur Niederschläge Wind Luftdruck Luftfeuchtigkeit
00:00 +24°C° 0 mm 3 m/S 670 mmHg 42%
01:00 +23°C° 0 mm 2 m/S 669 mmHg 42%
02:00 +21°C° 0 mm 2 m/S 669 mmHg 42%
03:00 +21°C° 0 mm 2 m/S 669 mmHg 42%
04:00 +23°C° 0 mm 2 m/S 670 mmHg 40%
05:00 +24°C° 0 mm 1 m/S 670 mmHg 38%
06:00 +25°C° 0 mm 1 m/S 671 mmHg 36%
07:00 +27°C° 0 mm 1 m/S 671 mmHg 32%
08:00 +29°C° 0 mm 1 m/S 671 mmHg 28%
09:00 +32°C° 0 mm 2 m/S 671 mmHg 23%
10:00 +34°C° 0 mm 2 m/S 671 mmHg 21%
11:00 +36°C° 0 mm 3 m/S 671 mmHg 18%
12:00 +38°C° 0 mm 4 m/S 671 mmHg 15%
13:00 +40°C° 0 mm 4 m/S 671 mmHg 14%
14:00 +40°C° 0 mm 5 m/S 671 mmHg 13%
15:00 +41°C° 0 mm 5 m/S 670 mmHg 12%
16:00 +40°C° 0 mm 6 m/S 670 mmHg 16%
17:00 +39°C° 0 mm 6 m/S 669 mmHg 21%
18:00 +38°C° 0 mm 6 m/S 669 mmHg 25%
19:00 +34°C° 0 mm 5 m/S 669 mmHg 30%
20:00 +29°C° 0 mm 4 m/S 669 mmHg 36%
21:00 +26°C° 0 mm 4 m/S 669 mmHg 41%
22:00 +25°C° 0 mm 3 m/S 669 mmHg 40%
23:00 +25°C° 0 mm 3 m/S 669 mmHg 39%

25 Juni, Freitag

Zeit Temperatur Niederschläge Wind Luftdruck Luftfeuchtigkeit
00:00 +24°C° 0 mm 3 m/S 670 mmHg 38%
01:00 +23°C° 0 mm 2 m/S 669 mmHg 38%
02:00 +23°C° 0 mm 2 m/S 669 mmHg 39%
03:00 +21°C° 0 mm 2 m/S 669 mmHg 40%
04:00 +23°C° 0 mm 2 m/S 670 mmHg 38%
05:00 +24°C° 0 mm 1 m/S 670 mmHg 37%
06:00 +25°C° 0 mm 1 m/S 670 mmHg 35%
07:00 +27°C° 0 mm 2 m/S 670 mmHg 31%
08:00 +30°C° 0 mm 2 m/S 671 mmHg 27%
09:00 +32°C° 0 mm 2 m/S 671 mmHg 22%
10:00 +35°C° 0 mm 2 m/S 671 mmHg 20%
11:00 +36°C° 0 mm 3 m/S 671 mmHg 17%
12:00 +38°C° 0 mm 3 m/S 671 mmHg 14%
13:00 +38°C° 0 mm 3 m/S 670 mmHg 13%
14:00 +39°C° 0 mm 3 m/S 670 mmHg 13%
15:00 +40°C° 0 mm 3 m/S 669 mmHg 12%
16:00 +40°C° 0 mm 4 m/S 669 mmHg 16%
17:00 +38°C° 0 mm 4 m/S 669 mmHg 19%
18:00 +37°C° 0 mm 4 m/S 669 mmHg 23%
19:00 +34°C° 0 mm 4 m/S 668 mmHg 29%
20:00 +29°C° 0 mm 4 m/S 668 mmHg 35%
21:00 +26°C° 0 mm 4 m/S 668 mmHg 41%
22:00 +25°C° 0 mm 3 m/S 668 mmHg 40%
23:00 +25°C° 0 mm 3 m/S 668 mmHg 39%

26 Juni, Samstag

Zeit Temperatur Niederschläge Wind Luftdruck Luftfeuchtigkeit
00:00 +24°C° 0 mm 2 m/S 668 mmHg 37%
01:00 +23°C° 0 mm 2 m/S 668 mmHg 38%
02:00 +23°C° 0 mm 2 m/S 668 mmHg 38%
03:00 +21°C° 0 mm 2 m/S 668 mmHg 38%
04:00 +23°C° 0 mm 2 m/S 668 mmHg 37%
05:00 +24°C° 0 mm 1 m/S 669 mmHg 35%
06:00 +25°C° 0 mm 1 m/S 669 mmHg 34%
07:00 +27°C° 0 mm 1 m/S 669 mmHg 30%
08:00 +30°C° 0 mm 1 m/S 669 mmHg 26%
09:00 +32°C° 0 mm 2 m/S 670 mmHg 22%
10:00 +35°C° 0 mm 2 m/S 669 mmHg 19%
11:00 +36°C° 0 mm 2 m/S 669 mmHg 17%
12:00 +38°C° 0 mm 3 m/S 669 mmHg 14%
13:00 +39°C° 0 mm 2 m/S 669 mmHg 14%
14:00 +39°C° 0 mm 2 m/S 669 mmHg 13%
15:00 +40°C° 0 mm 2 m/S 668 mmHg 12%
16:00 +39°C° 0 mm 3 m/S 668 mmHg 16%
17:00 +37°C° 0 mm 4 m/S 668 mmHg 21%
18:00 +36°C° 0 mm 4 m/S 667 mmHg 25%
19:00 +33°C° 0 mm 4 m/S 668 mmHg 31%
20:00 +29°C° 0 mm 3 m/S 668 mmHg 37%
21:00 +26°C° 0 mm 3 m/S 668 mmHg 42%
22:00 +25°C° 0 mm 3 m/S 668 mmHg 43%
23:00 +25°C° 0 mm 3 m/S 668 mmHg 43%

27 Juni, Sonntag

Zeit Temperatur Niederschläge Wind Luftdruck Luftfeuchtigkeit
00:00 +24°C° 0 mm 3 m/S 668 mmHg 44%
01:00 +23°C° 0 mm 2 m/S 668 mmHg 45%
02:00 +23°C° 0 mm 2 m/S 668 mmHg 46%
03:00 +21°C° 0 mm 2 m/S 668 mmHg 47%
04:00 +23°C° 0 mm 2 m/S 669 mmHg 45%
05:00 +24°C° 0 mm 1 m/S 669 mmHg 43%
06:00 +25°C° 0 mm 1 m/S 670 mmHg 41%
07:00 +27°C° 0 mm 1 m/S 670 mmHg 36%
08:00 +29°C° 0 mm 2 m/S 670 mmHg 32%
09:00 +32°C° 0 mm 2 m/S 671 mmHg 27%
10:00 +34°C° 0 mm 2 m/S 671 mmHg 24%
11:00 +36°C° 0 mm 2 m/S 671 mmHg 21%
12:00 +38°C° 0 mm 2 m/S 671 mmHg 18%
13:00 +38°C° 0 mm 2 m/S 670 mmHg 17%
14:00 +39°C° 0 mm 2 m/S 670 mmHg 15%
15:00 +39°C° 0 mm 1 m/S 670 mmHg 14%
16:00 +38°C° 0 mm 3 m/S 669 mmHg 19%
17:00 +37°C° 0 mm 4 m/S 669 mmHg 23%
18:00 +36°C° 0 mm 6 m/S 669 mmHg 28%
19:00 +33°C° 0 mm 5 m/S 669 mmHg 34%
20:00 +30°C° 0 mm 4 m/S 670 mmHg 40%
21:00 +27°C° 0 mm 4 m/S 670 mmHg 46%
22:00 +26°C° 0 mm 3 m/S 670 mmHg 46%
23:00 +25°C° 0 mm 3 m/S 670 mmHg 47%
Mehr zeigen

Wir brauchen deine Erlaubnis

Meteoprog und unser Service Anbieter werden persönliche Daten aufbewahren, so wie Cookies, Geräte Bezeichnung oder ähnliche Technologien von deinem Gerät und Prozess, so wie Persönliche Daten Inhalte und Werbungen, genauso wie social Media und den Verkehr zu analysieren.

  • Aufbewahrung und/oder Zugang zu deiner Geräte Informationen.

    Cookies, Geräte Bezeichnung oder andere Informationen, können aufbewahrt oder Zugang zu deinem Gerät erhalten, für den Grund, der oben angegeben wird.

  • Personalisierte Werbung und Inhalte, Messungen, Einblick in das Publikum und Produkt Entwicklung.

    Werbungen und Inhalte können personalisiert werden, basierend auf ein Profil. Mehr Daten können besser personalisierte Werbungen und Inhalte hinzufügen. Werbung und Inhalte können gezeigt und gemessen werden. Einblicke über das Publikum, welche die Werbung gesehen haben und den Inhalt, können abgeleitet werden. So wie Daten können genutzt werden, um es zu verbessern oder die Benutzer Erfahrung zu verbessern das System und die Software.

Wenn du “Ich stimme zu” klickst, erlaubst du uns, die Cookies zu benutzen die Geräte Bezeichnung, den Web oder ähnliche Technologien zu benutzen. Deine Settings, können in deinem Gerät bei deinem Browser geändert werden.

Für den bestimmten Zweck, berechtigten Interessen beruhen darauf, mehr als auf den Inhalt. Du kannst mehr darüber in unseren Privaten und Cookie Politik lesen.